Regional Weather Roundup
Issued by NWS

Home | Current Version | Previous Version | Text Only | Print | Product List | Glossary Off
Versions: 1 2 3 4 5 6 7 8 9 10 11 12 13 14 15 16 17 18 19 20 21 22 23 24 25 26 27 28 29 30 31 32 33 34 35 36 37 38 39 40 41 42 43 44 45 46 47 48 49 50

000
ASUS43 KFSD 200102
RWRSD

WEATHER ROUNDUP FOR SOUTH DAKOTA
NATIONAL WEATHER SERVICE SIOUX FALLS SD
700 PM CST FRI DEC 19 2014

NOTE: "FAIR" INDICATES FEW OR NO CLOUDS BELOW 12,000 FEET WITH NO
SIGNIFICANT WEATHER AND/OR OBSTRUCTIONS TO VISIBILITY.


SDZ001>005-009-010-012>017-200200-
NORTHWEST AND NORTH CENTRAL SOUTH DAKOTA

CITY           SKY/WX    TMP DP  RH WIND       PRES   REMARKS
BUFFALO          N/A     36  22  56 W5        29.84S
FAITH            N/A     30  25  81 S7        29.93S WCI  23
MOBRIDGE       CLEAR     25  22  88 E8        29.93S WCI  16
$$

SDZ012>016-024>037-041>051-057-063-072>074-200200-
SOUTHWEST AND SOUTH CENTRAL SOUTH DAKOTA

CITY           SKY/WX    TMP DP  RH WIND       PRES   REMARKS
RAPID CTY ARPT CLEAR     33  24  69 CALM      29.93S
PIERRE         CLEAR     19  18  95 E5        29.97S WCI  12
CUSTER         CLEAR     28  15  58 CALM      29.92S
ELLSWORTH AFB  CLEAR     35  24  63 SW7       29.92S WCI  29
PHILIP         CLEAR     32  23  69 CALM      29.95F
PINE RIDGE     CLEAR     28  20  71 CALM      29.97S
WINNER         FAIR      27  22  81 SW3       29.98S
$$

SDZ004>011-016>023-039-040-200200-
NORTHEAST SOUTH DAKOTA

CITY           SKY/WX    TMP DP  RH WIND       PRES   REMARKS
ABERDEEN       CLOUDY    30  27  88 S12       30.02S WCI  20
WATERTOWN      CLOUDY    28  27  96 S12       30.02R FOG     WCI  18
SISSETON         N/A     30  29  96 S9        30.03S WCI  22
$$

SDZ017-020-022-023-036>040-048>070-200200-
SOUTHEAST SOUTH DAKOTA

CITY           SKY/WX    TMP DP  RH WIND       PRES   REMARKS
SIOUX FALLS    CLOUDY    31  28  89 S13       30.08F WCI  21
HURON          CLOUDY    30  27  88 S14       30.03F WCI  19
MITCHELL       CLOUDY    30  28  92 S15       30.06S WCI  19
YANKTON        CLOUDY    32  28  86 S7        30.08F WCI  26
$$

ABBREVIATIONS USED IN REMARKS
   TC - TEMPERATURE IN CELSIUS
  WCI - WIND CHILL INDEX
   HX - HEAT INDEX
  VSB - VISIBILITY



USA.gov is the U.S. government's official web portal to all federal, state and local government web resources and services.